DIMSH VNKT-VNLK

Flight info

Callsign DIMSH
Flight time 0h 29m
Altitude 11000
Route IGRIS1E KIMTI DCT VNPL
Aircraft DHC6/L-SDFGR/C

Departure

Time 2026-05-05 11:14
Airport Tribhuvan International Airport (VNKT)

Arrival

Time 2026-05-05 11:44
Airport Tenzing-Hillary Airport (VNLK)
Time Latitude Longitude Altitude Speed Heading
2026-05-05 11:06 27.70533 85.36002 4374 ft 0 kts 247°
2026-05-05 11:12 27.70531 85.35996 4382 ft 8 kts 248°
2026-05-05 11:12 27.70458 85.36008 4380 ft 8 kts 164°
2026-05-05 11:12 27.70396 85.36031 4379 ft 9 kts 165°
2026-05-05 11:13 27.70329 85.36056 4378 ft 12 kts 162°
2026-05-05 11:13 27.70242 85.36088 4366 ft 15 kts 163°
2026-05-05 11:13 27.70135 85.36124 4374 ft 17 kts 179°
2026-05-05 11:13 27.69931 85.36035 4364 ft 58 kts 202°
2026-05-05 11:14 27.69415 85.35817 4463 ft 88 kts 199°
2026-05-05 11:14 27.68788 85.35578 4698 ft 91 kts 201°
2026-05-05 11:14 27.68162 85.35370 4859 ft 107 kts 188°
2026-05-05 11:14 27.67404 85.35322 5100 ft 109 kts 184°
2026-05-05 11:15 27.66656 85.35377 5394 ft 111 kts 160°
2026-05-05 11:15 27.66166 85.36016 5646 ft 111 kts 109°
2026-05-05 11:15 27.66034 85.36860 5947 ft 108 kts 98°
2026-05-05 11:15 27.65890 85.37685 6233 ft 107 kts 100°
2026-05-05 11:16 27.65753 85.38508 6510 ft 107 kts 100°
2026-05-05 11:16 27.65614 85.39330 6795 ft 107 kts 99°
2026-05-05 11:16 27.65476 85.40151 7056 ft 108 kts 99°
2026-05-05 11:16 27.65336 85.40985 7340 ft 108 kts 99°
2026-05-05 11:17 27.65193 85.41824 7608 ft 110 kts 98°
2026-05-05 11:17 27.65054 85.42676 7882 ft 110 kts 100°
2026-05-05 11:17 27.64911 85.43508 8167 ft 110 kts 99°
2026-05-05 11:17 27.64769 85.44356 8458 ft 109 kts 100°
2026-05-05 11:18 27.64628 85.45195 8746 ft 110 kts 99°
2026-05-05 11:18 27.64486 85.46042 9017 ft 110 kts 99°
2026-05-05 11:18 27.64342 85.46891 9300 ft 110 kts 99°
2026-05-05 11:18 27.64198 85.47741 9571 ft 111 kts 98°
2026-05-05 11:19 27.64055 85.48593 9826 ft 110 kts 99°
2026-05-05 11:19 27.63911 85.49447 10066 ft 110 kts 98°
2026-05-05 11:19 27.63766 85.50297 10286 ft 111 kts 99°
2026-05-05 11:19 27.63623 85.51151 10526 ft 111 kts 98°
2026-05-05 11:20 27.63475 85.52010 10756 ft 111 kts 99°
2026-05-05 11:20 27.63332 85.52870 10975 ft 114 kts 99°
2026-05-05 11:20 27.63123 85.53807 11046 ft 132 kts 108°
2026-05-05 11:20 27.62855 85.54787 11310 ft 127 kts 104°
2026-05-05 11:21 27.62613 85.55726 11590 ft 122 kts 106°
2026-05-05 11:21 27.62361 85.56668 11708 ft 134 kts 106°
2026-05-05 11:21 27.62092 85.57687 11901 ft 135 kts 106°
2026-05-05 11:21 27.61822 85.58702 11952 ft 144 kts 106°
2026-05-05 11:22 27.61523 85.59809 12104 ft 140 kts 106°
2026-05-05 11:22 27.61262 85.60804 12379 ft 133 kts 106°
2026-05-05 11:22 27.60977 85.61867 12340 ft 148 kts 107°
2026-05-05 11:22 27.60680 85.62975 12460 ft 146 kts 107°
2026-05-05 11:23 27.60391 85.64058 12585 ft 144 kts 106°
2026-05-05 11:23 27.60085 85.65213 12411 ft 169 kts 106°
2026-05-05 11:23 27.59724 85.66567 12177 ft 188 kts 107°
2026-05-05 11:23 27.59308 85.68001 11991 ft 195 kts 112°
2026-05-05 11:24 27.58789 85.69433 11811 ft 199 kts 111°
2026-05-05 11:24 27.58288 85.70899 11636 ft 201 kts 111°
2026-05-05 11:24 27.57674 85.72306 11485 ft 200 kts 117°
2026-05-05 11:24 27.57072 85.73684 11403 ft 199 kts 115°
2026-05-05 11:25 27.56460 85.75099 11228 ft 202 kts 116°
2026-05-05 11:25 27.55840 85.76508 11126 ft 199 kts 116°
2026-05-05 11:25 27.55228 85.77886 11064 ft 193 kts 116°
2026-05-05 11:25 27.54637 85.79243 11005 ft 193 kts 116°
2026-05-05 11:26 27.54048 85.80584 11009 ft 190 kts 116°
2026-05-05 11:26 27.53463 85.81908 11012 ft 188 kts 116°
2026-05-05 11:26 27.52938 85.83250 10948 ft 186 kts 105°
2026-05-05 11:26 27.52633 85.84662 10943 ft 186 kts 102°
2026-05-05 11:27 27.52318 85.86084 10946 ft 187 kts 103°
2026-05-05 11:27 27.51998 85.87486 10942 ft 186 kts 103°
2026-05-05 11:27 27.51865 85.88927 10957 ft 185 kts 89°
2026-05-05 11:27 27.51848 85.90374 10960 ft 185 kts 91°
2026-05-05 11:28 27.51772 85.91822 10958 ft 186 kts 92°
2026-05-05 11:28 27.51683 85.93271 10960 ft 186 kts 92°
2026-05-05 11:28 27.51582 85.94727 10961 ft 185 kts 94°
2026-05-05 11:28 27.51524 85.95688 10964 ft 185 kts 92°
2026-05-05 11:29 27.51452 85.97141 10963 ft 185 kts 92°
2026-05-05 11:29 27.51370 85.98586 10959 ft 185 kts 92°
2026-05-05 11:29 27.51282 86.00029 10959 ft 184 kts 92°
2026-05-05 11:29 27.51168 86.01935 10961 ft 184 kts 92°
2026-05-05 11:30 27.51111 86.02912 10959 ft 185 kts 92°
2026-05-05 11:30 27.51025 86.04354 10965 ft 184 kts 92°
2026-05-05 11:30 27.50940 86.05779 10960 ft 184 kts 92°
2026-05-05 11:30 27.50853 86.07222 10955 ft 184 kts 93°
2026-05-05 11:31 27.50767 86.08663 10965 ft 184 kts 92°
2026-05-05 11:31 27.50681 86.10107 10964 ft 185 kts 93°
2026-05-05 11:31 27.50593 86.11549 10965 ft 185 kts 92°
2026-05-05 11:31 27.50506 86.12997 10962 ft 184 kts 92°
2026-05-05 11:32 27.50420 86.14431 10966 ft 183 kts 92°
2026-05-05 11:32 27.50333 86.15871 10968 ft 184 kts 92°
2026-05-05 11:32 27.50245 86.17302 10977 ft 185 kts 93°
2026-05-05 11:32 27.50158 86.18752 10999 ft 186 kts 92°
2026-05-05 11:33 27.50069 86.20210 11007 ft 186 kts 92°
2026-05-05 11:33 27.49980 86.21666 11000 ft 187 kts 92°
2026-05-05 11:33 27.49893 86.23104 10999 ft 185 kts 92°
2026-05-05 11:33 27.49803 86.24543 10996 ft 181 kts 93°
2026-05-05 11:34 27.49717 86.25950 10997 ft 178 kts 92°
2026-05-05 11:34 27.49864 86.27303 10972 ft 172 kts 64°
2026-05-05 11:34 27.50395 86.28501 10991 ft 173 kts 63°
2026-05-05 11:34 27.50908 86.29758 10998 ft 178 kts 63°
2026-05-05 11:35 27.51427 86.31034 10993 ft 180 kts 63°
2026-05-05 11:35 27.51957 86.32319 11002 ft 181 kts 63°
2026-05-05 11:35 27.52494 86.33600 10998 ft 180 kts 62°
2026-05-05 11:35 27.53010 86.34875 11040 ft 177 kts 64°
2026-05-05 11:36 27.53531 86.36138 11036 ft 178 kts 63°
2026-05-05 11:36 27.54062 86.37411 11036 ft 181 kts 63°
2026-05-05 11:36 27.54590 86.38691 11037 ft 183 kts 63°
2026-05-05 11:36 27.55131 86.40003 11094 ft 185 kts 63°
2026-05-05 11:37 27.55674 86.41321 11085 ft 186 kts 63°
2026-05-05 11:37 27.56211 86.42636 11090 ft 184 kts 63°
2026-05-05 11:37 27.56754 86.43947 11090 ft 185 kts 63°
2026-05-05 11:37 27.57297 86.45255 11090 ft 183 kts 62°
2026-05-05 11:38 27.57832 86.46552 11095 ft 183 kts 63°
2026-05-05 11:38 27.58354 86.47825 11365 ft 170 kts 63°
2026-05-05 11:38 27.58824 86.48971 11767 ft 154 kts 63°
2026-05-05 11:38 27.59375 86.49936 12199 ft 137 kts 32°
2026-05-05 11:39 27.60142 86.50325 12746 ft 114 kts 15°
2026-05-05 11:39 27.60787 86.50467 12792 ft 127 kts 28°
2026-05-05 11:39 27.60996 86.51580 12527 ft 172 kts 110°
2026-05-05 11:39 27.60479 86.52808 12526 ft 175 kts 101°
2026-05-05 11:40 27.60694 86.54138 12492 ft 177 kts 57°
2026-05-05 11:40 27.61345 86.55227 12872 ft 156 kts 57°
2026-05-05 11:40 27.61825 86.56293 13165 ft 150 kts 63°
2026-05-05 11:40 27.62191 86.57317 13662 ft 141 kts 72°
2026-05-05 11:41 27.62448 86.58475 13533 ft 162 kts 79°
2026-05-05 11:41 27.62658 86.59704 13663 ft 166 kts 79°
2026-05-05 11:41 27.62877 86.60949 14017 ft 158 kts 78°
2026-05-05 11:41 27.63199 86.62152 14035 ft 167 kts 56°
2026-05-05 11:42 27.64097 86.62994 14094 ft 169 kts 33°
2026-05-05 11:42 27.64949 86.63934 14097 ft 177 kts 54°
2026-05-05 11:42 27.65507 86.65178 14139 ft 178 kts 66°
2026-05-05 11:42 27.66006 86.66466 14074 ft 183 kts 66°
2026-05-05 11:43 27.66503 86.67824 13162 ft 187 kts 70°
2026-05-05 11:43 27.66938 86.69025 12510 ft 143 kts 64°
2026-05-05 11:43 27.67332 86.69922 12062 ft 116 kts 64°
2026-05-05 11:43 27.67702 86.70761 11246 ft 117 kts 67°
2026-05-05 11:44 27.68062 86.71619 10033 ft 138 kts 66°
2026-05-05 11:44 27.68490 86.72585 9259 ft 123 kts 59°
2026-05-05 11:44 27.68728 86.73052 9433 ft 10 kts 56°
2026-05-05 11:44 27.68774 86.73132 9473 ft 20 kts 58°
2026-05-05 11:45 27.68773 86.73188 9475 ft 0 kts 57°
2026-05-05 11:49 27.68757 86.73181 9472 ft 0 kts 337°
2026-05-05 11:49 27.68740 86.73067 9452 ft 44 kts 242°
2026-05-05 11:49 27.68405 86.72501 9207 ft 119 kts 218°
2026-05-05 11:49 27.67694 86.72772 9338 ft 136 kts 122°
2026-05-05 11:50 27.67346 86.73699 9878 ft 119 kts 94°
2026-05-05 11:50 27.67520 86.74562 10288 ft 118 kts 49°
2026-05-05 11:50 27.68216 86.74631 10659 ft 105 kts 309°
2026-05-05 11:50 27.68586 86.73954 10817 ft 99 kts 282°
2026-05-05 11:51 27.68090 86.73483 10594 ft 122 kts 184°
2026-05-05 11:51 27.67253 86.73448 10451 ft 120 kts 190°
2026-05-05 11:51 27.66857 86.72659 10110 ft 149 kts 283°
2026-05-05 11:51 27.67637 86.71960 10255 ft 158 kts
2026-05-05 11:52 27.68539 86.72565 9340 ft 166 kts 71°
2026-05-05 11:52 27.68849 86.73349 9951 ft 93 kts 62°
2026-05-05 11:52 27.68871 86.73394 9779 ft 0 kts 194°
2026-05-05 11:52 27.68871 86.73393 9779 ft 0 kts 192°
2026-05-05 11:53 27.68872 86.73393 9778 ft 0 kts 179°
2026-05-05 11:53 27.68870 86.73387 9753 ft 1 kts 134°
2026-05-05 11:55 27.68926 86.73458 10583 ft 0 kts 132°
2026-05-05 11:56 27.68539 86.73945 20656 ft 227 kts 136°
2026-05-05 11:56 27.67879 86.75435 20936 ft 204 kts 103°
2026-05-05 11:56 27.67754 86.77027 20985 ft 203 kts 84°
2026-05-05 11:56 27.68404 86.78303 21290 ft 186 kts 32°
2026-05-05 11:57 27.69555 86.79026 21133 ft 191 kts 21°
2026-05-05 11:57 27.70776 86.79579 20990 ft 180 kts 351°
2026-05-05 11:57 27.71671 86.78734 19279 ft 207 kts 298°
2026-05-05 11:57 27.72329 86.77078 16947 ft 247 kts 279°
2026-05-05 11:58 27.71447 86.75707 16084 ft 198 kts 220°
2026-05-05 11:58 27.70451 86.74917 14975 ft 160 kts 212°
2026-05-05 11:58 27.69553 86.74248 12479 ft 157 kts 228°
2026-05-05 11:58 27.68877 86.73296 9770 ft 151 kts 234°
2026-05-05 11:59 27.68204 86.72616 9489 ft 128 kts 148°
2026-05-05 11:59 27.68203 86.73517 9755 ft 113 kts 69°
2026-05-05 11:59 27.68539 86.73779 10210 ft 672 kts 46°
2026-05-05 11:59 27.67845 86.73079 9793 ft 874 kts 46°
2026-05-05 12:00 27.68244 86.73191 9877 ft 0 kts 46°
2026-05-05 12:00 27.67945 86.73477 10399 ft 0 kts 46°
2026-05-05 12:00 27.68732 86.73556 10611 ft 130 kts 306°
2026-05-05 12:00 27.68767 86.73046 9452 ft 3 kts 180°
2026-05-05 12:01 27.68764 86.73045 9451 ft 0 kts 197°
2026-05-05 12:01 27.68764 86.73046 9451 ft 0 kts 197°
2026-05-05 12:04 27.68765 86.73046 9451 ft 0 kts 199°
2026-05-05 12:09 27.68764 86.73046 9451 ft 0 kts 204°
2026-05-05 12:09 27.68765 86.73046 9451 ft 0 kts 204°
2026-05-05 12:11 27.68764 86.73046 9451 ft 0 kts 204°
2026-05-05 12:13 27.68763 86.73046 9451 ft 0 kts 206°